Snowfall_Accumulation
0.5 1.3 1.8 0.5 0.5 0.6 0.7 1.2 1.2 0.6 0.2 0.5 0.7 0.3 0.0 0.0 0.1 0.1 0.0 0.0 0.0 0.0 0.0 0.0 0.0 0.0 0.0 0.0 0.0 0.0 0.0 0.0 0.0 0.0 0.0 0.0 0.0 0.0 0.0 0.0 0.0 0.0 0.0 0.0
1.6 1.8 0.2 0.1 0.3 0.6 1.1 1.6 1.3 0.4 0.2 0.6 0.8 0.3 0.0 0.0 0.1 0.1 0.0 0.0 0.0 0.0 0.0 0.0 0.0 0.0 0.0 0.0 0.0 0.0 0.0 0.0 0.0 0.0 0.0 0.0 0.0 0.0 0.0 0.0 0.0 0.0 0.0 0.0
2.1 1.1 0.1 0.3 0.6 0.9 1.1 1.3 1.0 1.0 0.4 0.4 1.0 0.6 0.0 0.0 0.0 0.0 0.0 0.0 0.0 0.0 0.0 0.0 0.0 0.0 0.0 0.0 0.0 0.0 0.0 0.0 0.0 0.0 0.0 0.0 0.0 0.0 0.0 0.0 0.0 0.0 0.0 0.0
1.4 0.3 0.2 1.0 1.0 0.9 1.1 0.3 0.5 1.0 1.9 1.7 1.4 2.1 0.2 0.0 0.0 0.0 0.0 0.0 0.0 0.0 0.0 0.0 0.0 0.0 0.0 0.0 0.0 0.0 0.0 0.0 0.0 0.0 0.0 0.0 0.0 0.0 0.0 0.0 0.0 0.0 0.0 0.0
1.6 0.5 0.6 1.2 1.0 0.5 0.6 0.2 0.4 0.8 2.1 2.8 1.4 2.7 0.6 0.2 0.1 0.1 0.0 0.0 0.0 0.0 0.0 0.0 0.0 0.0 0.0 0.0 0.0 0.0 0.0 0.0 0.0 0.0 0.0 0.0 0.0 0.0 0.0 0.0 0.0 0.0 0.0 0.0
0.9 0.4 0.9 0.9 0.2 0.3 0.4 0.5 0.6 1.1 2.7 6.7 1.8 2.2 1.1 0.6 0.9 0.4 0.0 0.0 0.0 0.0 0.0 0.0 0.0 0.0 0.0 0.0 0.0 0.0 0.0 0.0 0.0 0.0 0.0 0.0 0.0 0.0 0.0 0.0 0.0 0.0 0.0 0.0
2.6 0.8 0.6 0.5 1.3 0.8 1.5 4.3 10.0 10.1 9.8 5.1 0.4 1.3 1.1 0.4 0.2 0.2 0.1 0.1 0.1 0.1 0.0 0.0 0.1 0.1 0.0 0.0 0.0 0.0 0.0 0.0 0.0 0.0 0.0 0.0 0.0 0.0 0.0 0.0 0.0 0.0 0.1 0.0
4.5 3.0 0.8 0.9 1.2 1.7 2.1 4.0 8.9 7.9 4.4 1.2 0.3 0.9 0.9 0.3 0.2 0.2 0.2 0.2 0.1 0.1 0.1 0.0 0.1 0.1 0.1 0.0 0.0 0.0 0.0 0.0 0.0 0.0 0.0 0.0 0.0 0.0 0.0 0.0 0.0 0.1 0.1 0.1
4.9 3.1 0.7 0.6 0.4 1.1 2.2 3.8 2.7 5.3 3.9 2.1 1.0 0.6 0.5 0.3 0.2 0.1 0.1 0.2 0.2 0.1 0.0 0.1 0.1 0.1 0.0 0.0 0.0 0.0 0.0 0.0 0.0 0.0 0.0 0.0 0.0 0.0 0.0 0.0 0.0 0.1 0.1 0.1
4.7 4.4 1.4 0.5 0.5 0.6 1.0 1.8 3.8 8.6 7.7 3.4 1.2 0.7 0.9 0.6 0.4 0.2 0.1 0.2 0.2 0.2 0.2 0.2 0.2 0.2 0.1 0.1 0.0 0.0 0.0 0.0 0.0 0.0 0.0 0.0 0.0 0.0 0.0 0.0 0.1 0.1 0.1 0.1
4.2 5.7 3.2 1.8 2.3 2.4 2.0 2.7 4.5 7.0 6.4 4.5 2.2 1.2 1.1 0.6 0.5 0.5 0.4 0.2 0.2 0.2 0.3 0.3 0.4 0.3 0.2 0.1 0.1 0.0 0.0 0.0 0.0 0.0 0.0 0.0 0.0 0.0 0.0 0.1 0.1 0.1 0.1 0.1
3.9 6.2 5.3 2.3 1.3 1.0 2.2 2.7 3.9 7.8 6.5 3.9 2.9 1.2 0.5 0.6 0.5 0.5 0.6 0.5 0.3 0.3 0.3 0.3 0.6 0.5 0.3 0.3 0.2 0.1 0.0 0.0 0.0 0.0 0.0 0.0 0.0 0.0 0.1 0.1 0.1 0.1 0.1 0.1
6.6 10.0 9.4 3.3 2.3 2.1 3.6 3.4 3.6 4.3 4.8 4.2 3.3 1.0 0.3 0.4 0.4 0.4 0.5 0.5 0.4 0.3 0.3 0.3 0.6 0.6 0.7 0.5 0.4 0.3 0.1 0.0 0.0 0.0 0.0 0.0 0.0 0.0 0.1 0.1 0.1 0.0 0.1 0.1
7.1 12.6 8.4 6.4 4.2 4.4 4.5 3.5 3.3 5.1 7.0 3.7 1.2 0.7 0.6 0.5 0.4 0.4 0.5 0.6 0.5 0.4 0.4 0.4 0.4 0.5 0.5 0.4 0.5 0.5 0.2 0.0 0.0 0.0 0.0 0.0 0.0 0.1 0.1 0.1 0.1 0.2 0.1 0.5
8.4 11.8 4.6 2.2 1.7 2.4 2.7 2.4 2.6 3.8 3.9 3.1 0.8 0.6 0.8 0.8 0.5 0.6 0.7 0.7 0.7 0.6 0.5 0.4 0.4 0.4 0.5 0.8 0.5 0.3 0.2 0.1 0.1 0.1 0.1 0.0 0.0 0.1 0.0 0.1 0.1 0.2 0.4 0.5
9.0 10.7 5.1 2.5 1.2 1.9 2.2 1.4 1.4 1.7 1.5 1.4 0.8 0.5 0.3 0.3 0.4 0.5 0.6 0.7 0.9 0.9 0.8 0.5 0.4 0.5 0.4 0.7 0.4 0.3 0.3 0.2 0.1 0.1 0.1 0.0 0.1 0.1 0.2 0.2 0.1 0.3 0.4 0.7
9.5 10.3 9.2 5.1 1.4 3.6 4.5 1.5 1.1 1.1 1.1 1.3 1.5 1.1 0.6 0.3 0.4 0.6 0.7 0.8 1.2 1.1 0.9 0.6 0.5 0.6 0.5 0.5 0.4 0.4 0.4 0.2 0.3 0.2 0.1 0.0 0.1 0.2 0.2 0.2 0.2 0.4 0.7 0.8
6.9 8.9 11.9 8.5 5.8 8.2 2.4 1.0 0.9 1.2 1.4 1.4 1.4 1.2 0.8 0.6 0.4 0.7 0.9 1.2 1.1 1.0 0.8 0.6 0.6 0.7 0.6 0.5 0.3 0.3 0.3 0.3 0.2 0.2 0.1 0.0 0.1 0.1 0.2 0.3 0.5 0.5 0.7 0.8
2.5 7.4 13.5 12.4 9.0 4.2 1.1 0.9 1.5 1.8 1.9 1.6 1.3 0.8 0.5 0.3 0.3 0.5 0.6 1.0 1.0 1.0 0.7 0.6 0.7 0.8 0.6 0.3 0.4 0.5 0.2 0.3 0.2 0.1 0.1 0.0 0.1 0.1 0.2 0.2 0.4 0.4 0.7 0.5
2.4 6.0 13.4 13.7 10.0 4.3 1.5 0.9 0.9 1.2 2.4 1.4 1.3 1.3 0.8 0.6 0.8 0.9 0.7 0.7 0.8 0.5 0.5 0.6 0.7 0.8 0.5 0.3 0.4 0.4 0.2 0.3 0.2 0.1 0.1 0.0 0.1 0.1 0.2 0.1 0.2 0.3 0.5 0.7
5.9 9.8 12.7 10.4 8.3 3.3 1.5 1.0 0.8 2.4 3.4 1.5 1.4 1.4 1.3 1.2 1.4 1.1 0.7 0.6 0.7 0.7 0.6 0.7 0.8 0.8 0.5 0.4 0.5 0.4 0.3 0.3 0.3 0.2 0.1 0.0 0.0 0.1 0.1 0.1 0.3 0.3 0.4 0.5
4.8 7.3 7.2 6.7 7.9 4.1 1.5 1.5 2.8 3.1 1.9 1.6 1.3 1.1 1.1 0.9 0.7 0.6 0.6 0.7 0.7 0.7 0.8 0.8 0.9 0.8 0.5 0.4 0.4 0.5 0.5 0.4 0.3 0.2 0.1 0.1 0.0 0.0 0.1 0.2 0.4 0.4 0.4 0.5
3.3 4.1 4.5 4.0 2.9 1.7 1.6 2.1 2.0 1.6 1.7 1.4 1.3 1.0 0.9 0.8 0.7 0.6 0.5 0.7 0.7 0.7 0.8 0.8 0.9 0.7 0.6 0.6 0.4 0.6 0.6 0.6 0.4 0.3 0.2 0.1 0.0 0.1 0.1 0.3 0.5 0.5 0.5 1.0
2.1 1.8 2.9 2.9 1.3 1.1 1.1 1.4 1.4 1.2 1.4 1.2 1.1 1.0 1.0 0.9 0.8 0.7 0.7 0.7 0.8 0.8 0.8 0.8 0.8 0.8 0.7 0.7 0.3 0.5 0.5 0.6 0.6 0.4 0.2 0.1 0.1 0.1 0.2 0.4 0.4 0.8 1.1 2.0
1.9 1.8 2.3 2.2 1.1 1.0 0.8 0.7 0.7 0.9 0.8 0.9 0.8 0.8 0.8 0.9 0.7 0.7 0.7 0.8 0.8 1.0 0.7 0.7 0.8 0.7 0.7 0.9 0.4 0.4 0.5 0.8 0.9 0.5 0.3 0.2 0.2 0.3 0.4 0.5 0.6 1.1 1.4 2.8
1.0 1.4 2.2 2.1 1.3 1.4 0.9 0.4 0.3 0.5 0.7 0.7 0.8 0.6 0.5 0.6 0.6 0.6 0.7 0.9 1.0 0.9 0.8 0.5 0.4 0.4 0.4 0.4 0.5 0.5 0.6 1.0 1.0 0.6 0.4 0.3 0.3 0.3 0.4 0.5 0.6 0.6 1.0 1.7